Location: Launay
(47.2429°N, 1.5727°E)
Time: 20:11:17
(UTC+00:00)

Oscar 19 - Visible Passes

Search period start: 13 April 2026 00:00
Search period end: 23 April 2026 00:00
Orbit: 769 x 787 km, 98.9° (Epoch: 13 April)

Date Brightness Start Highest point End Pass type
(mag) Time Alt. Az. Time Alt. Az. Time Alt. Az.
15 Apr 13.6 19:34:06 10° WSW 19:36:49 14° W 19:39:33 10° NW visible
18 Apr 13.6 19:34:11 10° WSW 19:36:57 14° W 19:39:43 10° NW visible
21 Apr 13.5 19:34:17 10° WSW 19:37:04 15° W 19:39:53 10° NW visible
